#timestamp,LO_Frequency,Hit,StdDev 
1560762015.8,286046998.9,N
1560762035.6,286047002.4,N
1560762055.4,286047001.9,N
1560762075.3,286047000.1,N
1560762095.1,286046999.9,N
1560762115.8,286047001.0,N
1560762135.7,286046998.2,N
1560762155.5,286046998.3,N
1560762175.3,286047000.6,N
1560762195.2,286047001.0,N
1560762215.9,286046998.1,N
1560762235.7,286046998.1,N
1560762255.6,286047000.8,N
1560762275.4,286047000.8,N
1560762295.2,286047002.3,N
1560762315.1,286046999.7,N
1560762316.0,286046999.7,N
1560762335.8,286046999.8,N
1560762355.6,286046998.3,N
1560762375.5,286046998.6,N
1560762395.3,286046998.6,N
1560762415.1,286046998.4,N
1560762435.9,286046996.5,N
1560762455.7,286046998.2,N
1560762475.5,286047001.2,N
1560762495.4,286046998.7,N
1560762515.2,286046998.8,N
1560762535.0,286046998.1,N
1560762535.9,286046998.1,N
1560762555.8,286046996.7,N
1560762575.6,286046996.9,N
1560762595.4,286046994.9,Y
1560762615.3,286046997.7,P
1560762635.1,286046997.7,N
1560762636.0,286046997.7,P
1560762655.8,286046997.2,Y
1560762675.7,286046998.9,P
1560762695.5,286047001.2,N
1560762715.3,286046997.3,N
1560762735.2,286046998.7,N
1560762755.9,286046998.5,N
1560762775.7,286046996.7,N
1560762795.6,286046995.9,Y
1560762815.4,286046996.2,P
1560762835.2,286046995.6,P
1560762855.1,286046995.2,P
1560762856.0,286046995.2,Y
1560762875.8,286046998.7,P
1560762895.6,286046999.3,N
1560762915.5,286046999.0,N
1560762935.3,286047000.7,N
1560762955.1,286047000.2,N
1560762975.9,286047002.4,N
1560762995.7,286047002.7,N
1560763015.5,286046999.9,N
1560763035.4,286047004.0,N
1560763055.2,286047006.0,N
1560763075.0,286047001.9,N
1560763075.9,286047001.9,N
1560763095.8,286047001.2,N
1560763115.6,286046996.7,N
1560763135.4,286046997.8,N
1560763155.3,286046997.7,N
1560763175.1,286046997.5,N
1560763176.0,286046997.5,N
1560763195.8,286046998.8,N
1560763215.7,286046999.4,N
1560763235.5,286046998.3,N
1560763255.3,286046999.4,N
1560763275.2,286047000.6,N
1560763295.9,286046998.2,N
1560763315.7,286046998.5,N
1560763335.6,286047000.5,N
1560763355.4,286046998.2,N
1560763375.2,286047000.2,N
1560763395.1,286046998.2,N
1560763396.0,286046998.2,N
1560763415.8,286047002.8,N
1560763435.6,286047002.6,N
1560763455.5,286047001.8,N
1560763475.3,286047001.7,N
1560763495.1,286047001.3,N
1560763515.9,286047001.5,N
1560763535.7,286047001.5,N
1560763555.5,286047001.3,N
1560763575.4,286047003.9,N
1560763595.2,286047001.5,N
1560763615.0,286047002.4,N
1560763615.9,286047002.4,N
1560763635.8,286047002.4,N
1560763655.6,286047002.1,N
1560763675.4,286047001.4,N
1560763695.3,286047000.0,N
1560763715.1,286047001.4,N
1560763716.0,286047001.4,N
1560763735.8,286047001.7,N
1560763755.7,286047000.7,N
1560763775.5,286046999.3,N
1560763795.3,286046998.9,N
1560763815.2,286046996.9,N
1560763835.9,286046999.1,N
1560763855.7,286046995.3,N
1560763875.6,286046999.1,N
1560763895.4,286046998.6,N
1560763915.2,286046998.3,N
1560763935.1,286046998.7,N
1560763936.0,286046998.7,N
1560763955.8,286046994.9,N
1560763975.6,286046994.8,N
1560763995.5,286046992.9,Y
1560764015.3,286046993.1,P
1560764035.1,286046992.5,N
1560764055.9,286046990.2,N
1560764075.7,286046991.1,N
1560764095.5,286046991.6,N
1560764115.4,286046991.2,N
1560764135.2,286046988.7,Y
1560764155.0,286046999.1,P
1560764156.0,286046999.1,N
1560764175.8,286047011.9,P
1560764195.6,286046996.8,N
1560764215.5,286046996.9,N
1560764235.3,286046998.7,N
1560764255.1,286047001.3,N
1560764275.9,286047003.5,N
1560764295.7,286047003.2,N
1560764315.5,286047001.4,N
1560764335.3,286047000.8,N
1560764355.2,286046997.4,N
1560764375.0,286046994.9,N
1560764375.9,286046994.9,N
1560764395.8,286046997.0,N
1560764415.6,286046999.6,N
1560764435.4,286046999.0,N
1560764455.3,286046998.3,N
1560764475.1,286046998.2,N
1560764476.0,286046998.2,N
1560764495.8,286047001.1,N
1560764515.7,286047000.4,N
1560764535.5,286046998.7,N
1560764555.3,286047000.3,N
1560764575.2,286046998.1,N
1560764595.9,286046998.4,N
1560764615.7,286046999.0,N
1560764635.6,286046998.7,N
1560764655.4,286046998.4,N
1560764675.2,286047000.8,N
1560764695.1,286047002.0,N
1560764696.0,286047002.0,N
1560764715.8,286047001.5,N
1560764735.6,286047001.9,N
1560764755.5,286047002.1,N
1560764775.3,286047000.6,N
1560764795.1,286046998.2,N
1560764815.9,286046999.6,N
1560764835.7,286046997.1,N
1560764855.5,286046999.4,N
1560764875.4,286046999.1,N
1560764895.2,286046999.5,N
1560764915.0,286047001.2,N
1560764915.9,286047001.2,N
1560764935.8,286046998.2,N
1560764955.6,286047000.6,N
1560764975.4,286047000.3,N
1560764995.3,286047000.0,N
1560765015.1,286047000.6,N
1560765035.8,286047001.2,N
1560765055.7,286046998.6,N
1560765075.5,286046999.4,N
1560765095.3,286046996.5,N
1560765115.2,286046997.3,N
1560765135.9,286046998.3,N
1560765155.7,286046999.4,N
1560765175.6,286047000.5,N
1560765195.4,286047001.6,N
1560765215.2,286047004.4,N
1560765235.1,286047004.3,N
1560765236.0,286047004.3,N
1560765255.8,286047005.6,N
1560765275.6,286047003.1,N
1560765295.5,286047001.2,N
1560765315.3,286046998.1,N
1560765335.1,286046998.7,N
1560765355.9,286046999.2,N
1560765375.7,286046999.4,N
1560765395.5,286046996.3,N
1560765415.4,286046993.6,N
1560765435.2,286046992.2,Y
1560765455.0,286046991.9,P
1560765455.9,286046991.9,N
1560765475.8,286046993.1,N
1560765495.6,286046991.3,N
1560765515.4,286046989.3,Y
1560765535.3,286046997.8,P
1560765555.1,286046995.7,N
1560765575.8,286046995.4,N
1560765595.7,286046997.6,N
